Weather History for La Junta, CO

Change the Weather History Date:

Friday, March 22, 2013

  Actual Average Record
Temperature  
Mean Temperature 44 °F 46 °F  
Max Temperature 58 °F 61 °F 80 °F (2009)
Min Temperature 29 °F 31 °F 10 °F (1952)
Degree Days  
Heating Degree Days 21 19  
Month to date heating degree days 465 489  
Since 1 July heating degree days 4241 4590  
Cooling Degree Days 0 0  
Month to date cooling degree days 0 0  
Year to date cooling degree days 0 0  
Moisture  
Dew Point 26 °F    
Average Humidity 62    
Maximum Humidity 100    
Minimum Humidity 24    
Precipitation  
Precipitation 0.00 in 0.03 in 0.39 in (1984)
Month to date precipitation 0.20 0.52  
Year to date precipitation 0.31 1.17  
Sea Level Pressure  
Sea Level Pressure 29.72 in    
Wind  
Wind Speed 11 mph (ENE)    
Max Wind Speed 29 mph    
Max Gust Speed 37 mph    
Visibility 10 miles    
Events      
T = Trace of Precipitation, MM = Missing Value Source: NWS Daily Summary

Daily Weather History Graph

Daily Weather History Graph

Search for Another Location

Airport:

Trip Planner

Search our weather history database for the weather conditions in past years. The results will help you decide how hot, cold, wet, or windy it might be!

Date:

Astronomy

Mar. 22, 2013 Rise Set
Actual Time 6:54 AM MDT 7:08 PM MDT
Civil Twilight 6:27 AM MDT 7:34 PM MDT
Nautical Twilight 5:56 AM MDT 8:05 PM MDT
Astronomical Twilight 5:25 AM MDT 8:36 PM MDT
Moon 2:41 PM MDT (3/22) 3:51 AM MDT (3/22)
Length of Visible Light 13h 06m
Length of Day
12h 14m
Waxing Gibbous, 78% of the Moon is Illuminated
Mar 22
Waxing Gibbous
Mar 27
Full
Apr 2
Last Quarter
Apr 10
New
Apr 18
First Quarter

Hourly Weather History & Observations

Time (MDT) Temp. Windchill Dew Point Humidity Pressure Visibility Wind Dir Wind Speed Gust Speed Precip Events Conditions
12:53 AM 32.0 °F 25.6 °F 28.9 °F 88% 29.82 in 10.0 mi West 6.9 mph - N/A   Clear
1:53 AM 28.9 °F 21.9 °F 28.0 °F 96% 29.83 in 10.0 mi NW 6.9 mph - N/A   Clear
2:15 AM 30.2 °F 23.4 °F 28.4 °F 93% 29.87 in 10.0 mi NW 6.9 mph - N/A   Mostly Cloudy
2:53 AM 33.1 °F 27.7 °F 30.9 °F 92% 29.82 in 10.0 mi North 5.8 mph - N/A   Overcast
3:53 AM 34.0 °F 29.8 °F 30.9 °F 89% 29.80 in 10.0 mi NNE 4.6 mph - N/A   Overcast
4:46 AM 35.6 °F - 32.0 °F 87% 29.85 in 10.0 mi Calm Calm - N/A   Overcast
4:53 AM 34.0 °F - 30.9 °F 89% 29.79 in 10.0 mi Calm Calm - N/A   Overcast
5:53 AM 34.0 °F 29.8 °F 30.0 °F 85% 29.82 in 10.0 mi NNW 4.6 mph - N/A   Overcast
6:18 AM 33.8 °F 29.6 °F 30.2 °F 87% 29.88 in 10.0 mi North 4.6 mph - N/A   Overcast
6:53 AM 30.0 °F 25.2 °F 27.0 °F 88% 29.86 in 10.0 mi North 4.6 mph - N/A   Partly Cloudy
7:53 AM 32.0 °F 28.7 °F 30.0 °F 92% 29.88 in 10.0 mi NNW 3.5 mph - N/A   Clear
8:53 AM 37.9 °F - 30.0 °F 73% 29.86 in 10.0 mi Calm Calm - N/A   Mostly Cloudy
9:53 AM 39.0 °F 36.8 °F 28.9 °F 67% 29.87 in 10.0 mi Variable 3.5 mph - N/A   Mostly Cloudy
10:53 AM 41.0 °F 34.7 °F 27.0 °F 57% 29.87 in 10.0 mi SSE 10.4 mph - N/A   Overcast
11:53 AM 44.1 °F 38.6 °F 21.9 °F 42% 29.83 in 10.0 mi SE 10.4 mph - N/A   Overcast
12:53 PM 48.9 °F - 19.9 °F 32% 29.77 in 10.0 mi SE 12.7 mph 21.9 mph N/A   Clear
2:53 PM 57.0 °F - 21.0 °F 25% 29.62 in 10.0 mi SE 19.6 mph 28.8 mph N/A   Clear
3:53 PM 55.9 °F - 21.0 °F 26% 29.57 in 10.0 mi SE 20.7 mph 32.2 mph N/A   Clear
4:53 PM 55.0 °F - 23.0 °F 29% 29.55 in 10.0 mi SE 21.9 mph 31.1 mph N/A   Overcast
5:37 PM 57.2 °F - 21.2 °F 25% 29.58 in 10.0 mi Variable 4.6 mph - N/A   Overcast
5:53 PM 57.0 °F - 21.9 °F 26% 29.52 in 10.0 mi ESE 9.2 mph - N/A   Overcast
6:53 PM 55.9 °F - 25.0 °F 30% 29.52 in 10.0 mi SSW 12.7 mph 21.9 mph N/A   Clear
7:53 PM 54.0 °F - 25.0 °F 33% 29.52 in 10.0 mi South 9.2 mph - N/A   Partly Cloudy
8:53 PM 48.9 °F - 24.1 °F 38% 29.53 in 10.0 mi NNE 6.9 mph - N/A   Scattered Clouds
9:53 PM 46.9 °F - 26.1 °F 44% 29.55 in 10.0 mi East 13.8 mph 21.9 mph N/A   Clear
10:53 PM 45.0 °F 38.9 °F 27.0 °F 49% 29.54 in 10.0 mi East 12.7 mph - N/A   Clear
11:53 PM 41.0 °F 30.2 °F 24.1 °F 51% 29.57 in 10.0 mi NE 27.6 mph 34.5 mph N/A   Clear